OpenBCM V1.08-5-g2f4a (Linux)

Packet Radio Mailbox

IZ3LSV

[San Dona' di P. JN]

 Login: GUEST





  
LU1HVK > KEP      11.01.20 14:41l 242 Lines 12024 Bytes #999 (0) @ WW
BID : 38862_LU1HVK
Read: GUEST
Subj: TLE 11 01
Path: IZ3LSV<IW0QNL<JH4XSY<N3HYM<N7HPX<LU1HVK
Sent: 200111/1240Z 38862@LU1HVK.2594.CBA.ARG.SA LinBPQ6.0.19

                         _    _   _ _ _   ___     ___  __
                        | |  | | | / | | | \ \   / / |/ /
                        | |  | | | | | |_| |\ \ / /| ' /
                        | |__| |_| | |  _  | \ V / | . \
                        |_____\___/|_|_| |_|  \_/  |_|\_\

     BBS/NODO - CORDOBA (LEONES-FF87UH) - LU1HVK-4 NODO - LU1HVK-3 APRS

+----------------------------------------------------------------------------+
OSCAR 7
1  7530U 74089B   20011.15397203 -.00000052  00000-0 -42244-4 0  9996
2  7530 101.7772 341.9289 0012081 310.1505 116.6182 12.53641541 66396
OSCAR 11 (UoSAT 2)
1 14781U 84021B   20010.81301474  .00000075  00000-0  15259-4 0  9995
2 14781  97.5977  30.6157 0008679  12.9295 347.2141 14.83134062929315
OSCAR 19 (LUSAT)
1 20442U 90005G   20010.79769545 -.00000012 +00000-0 +11922-4 0  9994
2 20442 098.6738 317.6798 0010654 261.8377 098.1598 14.32942436565831
EYESAT A
1 22825U 93061C   20010.83062117 -.00000010 +00000-0 +14257-4 0  9994
2 22825 098.9180 009.3302 0009343 115.8843 244.3303 14.30075432371146
ITAMSAT
1 22826U 93061D   20010.71425793 -.00000012 +00000-0 +13119-4 0  9993
2 22826 098.9120 009.1769 0009940 105.8985 254.3292 14.30410024371356
RADIO ROSTO
1 23439U 94085A   20010.89862276 -.00000077 +00000-0 -99823-3 0  9998
2 23439 064.8154 142.6592 0146069 072.8186 288.8670 11.27569276031142
JAS 2
1 24278U 96046B   20010.78094308 -.00000045  00000-0 -12283-4 0  9991
2 24278  98.5650 141.5485 0351270  65.9177 297.8292 13.53095188155675
TECHSAT 1B
1 25397U 98043D   20011.10411336 -.00000019  00000-0  10838-4 0  9998
2 25397  98.7124 313.9519 0001939 126.2966 233.8392 14.23677435117241
ISS (ZARYA)
1 25544U 98067A   20011.25516102  .00000195  00000-0  11565-4 0  9993
2 25544  51.6455  49.9243 0005192 121.3003 338.9406 15.49550468207533
PCSAT
1 26931U 01043C   20010.81639439 -.00000057 +00000-0 +98269-5 0  9997
2 26931 067.0495 191.7714 0006748 263.1465 096.8868 14.30564148954386
SAUDISAT 1C
1 27607U 02058C   20011.12104596 -.00000007  00000-0  19748-4 0  9990
2 27607  64.5548 138.4575 0066973 215.4480 144.2164 14.75601540917499
CUTE-1
1 27844U 03031E   20010.78867772 +.00000041 +00000-0 +38009-4 0  9996
2 27844 098.6833 020.9089 0010366 149.7610 210.4167 14.22215255857545
CUBESAT XI 4
1 27848U 03031J   20010.83977970 +.00000023 +00000-0 +30247-4 0  9994
2 27848 098.6906 021.4978 0010060 160.9372 199.2184 14.21805245857405
MOZHAYETS 4
1 27939U 03042A   20011.06100389 -.00000031  00000-0  31265-5 0  9997
2 27939  98.0665 148.2260 0014034 131.3778 228.8618 14.66829095870797
CUBESAT XI 5
1 28895U 05043F   20011.09573435  .00000110  00000-0  29857-4 0  9991
2 28895  97.9853 152.1276 0017870  62.8242 297.4780 14.63728471757678
CUTE-1.7+APD II
1 32785U 08021C   20010.81267149 +.00000182 +00000-0 +25208-4 0  9999
2 32785 097.5608 005.9311 0011788 303.2967 056.7120 14.88401462634277
DELFI C3
1 32789U 08021G   20010.36778617  .00000803  00000-0  57014-4 0  9990
2 32789  97.4400  58.5765 0013288 136.7441 223.4833 15.07377288637941
SEEDS
1 32791U 08021J   20010.75050738 +.00000387 +00000-0 +44534-4 0  9993
2 32791 097.5332 011.9947 0011833 271.9468 088.0395 14.90949625634732
YUBELEINY
1 32953U 08025A   20011.00515098  .00000037  00000-0  19437-3 0  9996
2 32953  82.5034  16.4527 0020120  42.0955 318.1672 12.43093591527943
PRISM (HITOMI)
1 33493U 09002B   20010.76842837  .00000905  00000-0  84402-4 0  9997
2 33493  98.1332 304.6287 0013884 216.4005 143.6272 14.96872448595975
KKS-1 (KISEKI)
1 33499U 09002H   20010.90260090 +.00000094 +00000-0 +21831-4 0  9990
2 33499 098.3320 221.0223 0007890 270.6099 089.4205 14.75494983589200
SWISSCUBE
1 35932U 09051B   20010.78556486 +.00000108 +00000-0 +35474-4 0  9995
2 35932 098.6003 188.0274 0006627 250.7857 109.2623 14.56347509546737
BEESAT
1 35933U 09051C   20010.77645795 +.00000077 +00000-0 +28299-4 0  9999
2 35933 098.6014 189.8522 0004741 265.8964 094.1691 14.56428825546802
ITUPSAT 1
1 35935U 09051E   20010.74726971 +.00000072 +00000-0 +27811-4 0  9998
2 35935 098.6123 190.0419 0007048 264.1985 095.8408 14.55580804546586
XIWANG-1 (HOPE-1)
1 36122U 09072B   20010.78417323 -.00000022 +00000-0 +53677-4 0  9997
2 36122 100.0821 008.5390 0007007 226.7660 133.2875 13.16353035483998
TISAT 1
1 36799U 10035E   20010.68695789 +.00000259 +00000-0 +32140-4 0  9994
2 36799 098.1763 175.0208 0013330 127.5223 232.7208 14.91245071515262
JUGNU
1 37839U 11058B   20011.07972547  .00000288  00000-0  11778-4 0  9996
2 37839  19.9595 163.1977 0018987  82.1146  75.0899 14.12668628426474
SRMSAT
1 37841U 11058D   20010.92441525 +.00000299 +00000-0 +18894-4 0  9997
2 37841 019.9704 225.1892 0011791 302.2292 185.6366 14.10647606425756
M-CUBED/EXP-1 PRIME
1 37855U 11061F   20010.80300298 +.00000576 +00000-0 +36623-4 0  9992
2 37855 101.7267 017.3914 0172121 185.6486 174.2789 15.05929111447323
HORYU 2
1 38340U 12025D   20011.10213935  .00000140  00000-0  28345-4 0  9997
2 38340  98.3042  60.6037 0011577 180.1831 179.9375 14.75797123411600
STRAND 1
1 39090U 13009E   20010.81378671 +.00000045 +00000-0 +30753-4 0  9999
2 39090 098.4676 218.1132 0009899 041.6820 318.5118 14.35113615359933
SOMP
1 39134U 13015E   20010.44232876  .00001449  00000-0  73968-4 0  9994
2 39134  64.8633  73.6169 0037965 270.1637  89.5140 15.20644890371872
BEESAT 3
1 39135U 13015F   20010.34003170 +.00001065 +00000-0 +61137-4 0  9996
2 39135 064.8666 095.1723 0044739 271.5821 088.0181 15.17845220371067
BEESAT 2
1 39136U 13015G   20010.85108432 +.00000922 +00000-0 +55599-4 0  9996
2 39136 064.8716 097.9732 0031014 279.8189 079.9436 15.17268833371054
CUBEBUG 1
1 39153U 13018D   20011.08825749  .00000186  00000-0  31112-4 0  9998
2 39153  97.9811 113.1098 0015729 247.6163 112.3383 14.80650684362356
ZACUBE
1 39417U 13066B   20010.75204473 +.00000197 +00000-0 +30877-4 0  9991
2 39417 097.5611 017.6520 0060367 078.6644 282.1344 14.81204535331546
TRITON 1
1 39427U 13066M   20010.72725145  .00000107  00000-0  25308-4 0  9997
2 39427  97.7038 340.6868 0112613 225.4619 133.7348 14.67928340328566
GOMX 1
1 39430U 13066Q   20011.21671425  .00000193  00000-0  44368-4 0  9999
2 39430  97.7726 319.4602 0150470 323.6466  35.4590 14.59337307326729
HUMSAT D
1 39433U 13066T   20011.07299391  .00000467  00000-0  50685-4 0  9997
2 39433  97.5284  54.8530 0029908 334.3383  25.6351 14.92348090333853
CUBEBUG 2
1 39440U 13066AA  20010.92181063 +.00000173 +00000-0 +30765-4 0  9995
2 39440 097.6160 002.3341 0081172 134.3274 226.4629 14.75941291329195
FUNCUBE 1
1 39444U 13066AE  20011.11030820  .00000252  00000-0  37129-4 0  9994
2 39444  97.5572  20.1177 0059423  70.6472 290.1154 14.82042395330509
UWE-3
1 39446U 13066AG  20010.77582091 +.00000181 +00000-0 +30397-4 0  9990
2 39446 097.5882 009.3772 0071385 107.2198 253.6843 14.78476190329122
SPROUT
1 39770U 14029E   20011.21969015  .00000719  00000-0  85210-4 0  9996
2 39770  97.8913 118.2992 0009750 123.3492 236.8654 14.87571905305539
UNISAT 6
1 40012U 14033C   20010.83725183  .00000154  00000-0  30139-4 0  9998
2 40012  97.7291 233.2419 0058892 151.3632 209.0833 14.74054275299050
DUCHIFAT 1
1 40021U 14033M   20010.88308224 +.00000495 +00000-0 +56172-4 0  9999
2 40021 097.9347 301.2471 0014282 089.8376 270.4478 14.90783254302262
QB50P1
1 40025U 14033R   20010.87218022 +.00000264 +00000-0 +34009-4 0  9997
2 40025 097.9118 295.2495 0013791 099.7963 260.4811 14.89051290301496
CHUBUSAT 1
1 40300U 14070C   20011.06687850  .00000482  00000-0  23803-4 0  9997
2 40300  97.3091  84.8199 0021243  53.1053 355.4828 15.22317962287411
NUDT-PHONESAT
1 40900U 15049B   20011.12742493  .00002025  00000-0  87709-4 0  9992
2 40900  97.4337  23.4916 0012742 172.9323 260.5048 15.23491627239083
ZDPS 2A
1 40901U 15049C   20011.21265253  .00000803  00000-0  42748-4 0  9993
2 40901  97.4610  19.0987 0012649 198.1147 225.2428 15.18019431238562
ZDPS 2B
1 40902U 15049D   20011.20327547  .00001237  00000-0  64206-4 0  9993
2 40902  97.4571  16.4295 0012785 195.1434 296.0837 15.17941425238532
XW-2A
1 40903U 15049E   20011.18253911  .00001864  00000-0  44853-4 0  9996
2 40903  97.3120  59.8637 0015009 114.3223 330.4956 15.42510473242076
KAITUO 1A
1 40904U 15049F   20011.21239475  .00000621  00000-0  36161-4 0  9993
2 40904  97.4720  14.7691 0013666 207.0436 281.9112 15.15564953238270
OBJECT G
1 40905U 15049G   20011.23045345  .00000200  00000-0  14462-4 0  9990
2 40905  97.4784  12.1307 0014840 202.6701 213.7982 15.14434256238132
XW-2C
1 40906U 15049H   20011.22320866  .00000380  00000-0  23267-4 0  9996
2 40906  97.4723  14.9647 0014152 197.5167 221.7947 15.15888603238283
XW-2D
1 40907U 15049J   20011.23953794  .00000656  00000-0  37490-4 0  9999
2 40907  97.4711  14.6688 0013573 193.8946 222.5112 15.16100027238307
LILACSAT 2
1 40908U 15049K   20011.21128707  .00000201  00000-0  14707-4 0  9998
2 40908  97.4853  13.2120 0015086 203.7503 216.5403 15.13930481238052
XW-2F
1 40910U 15049M   20011.19946013  .00001083  00000-0  57043-4 0  9995
2 40910  97.4650  16.9550 0014328 185.3584 239.7996 15.17643456238331
XW-2B
1 40911U 15049N   20011.21658655  .00000489  00000-0  28858-4 0  9992
2 40911  97.4728  15.3286 0013500 194.8394 225.5791 15.16026659238191
KAITUO 1B
1 40912U 15049P   20011.17695270  .00001014  00000-0  50164-4 0  9992
2 40912  97.4492  20.8938 0015230 165.8784 256.6512 15.19996885238677
TIANWANG 1C (TW-1C)
1 40926U 15051B   20011.09715881  .00015114  00000-0  18567-3 0  9998
2 40926  97.1093  62.2717 0005611 336.1378  54.3263 15.60360811242294
TIANWANG 1B (TW-1B)
1 40927U 15051C   20011.10097047  .00013905  00000-0  18384-3 0  9991
2 40927  97.1119  61.1978 0006407 349.9325  94.0489 15.58425456242115
